Location: Laterina
(43.5167°N, 11.7167°E)
Time: 16:57:58
(UTC+00:00)

NOSS 2-2 (C) - Pass Details

Date: 24 September 2020
Orbit: 468 x 1740 km, 63.3° (Epoch: 19 October)

Event Time Altitude Azimuth Distance (km) Brightness Sun altitude
Rises 17:23:23 0° 223° (SW) 2,515 7.4 -3.9°
Reaches altitude 10° 17:25:29 10° 227° (SW) 1,622 6.4 -4.3°
Maximum altitude 17:28:56 62° 309° (NW) 547 3.6 -4.9°
Drops below altitude 10° 17:32:43 10° 31° (NNE) 1,781 5.7 -5.6°
Sets 17:35:07 0° 35° (NE) 2,795 6.6 -6.1°
